Flight Information

DEPARTURE
SAN DIEGO, CA
Elevation:
427
Runways:
10L/28R - 4598x150 - ASPH-G
H1 - 48x48 - ASPH-G
5/23 - 3400x75 - ASPH-TRTD-E
10R/28L - 3401x60 - ASPH-G
Active PE Departure:
28R - 28L
Current PE ATIS:
N
Altimeter:
30.16
Remarks:
ATIS:
126.9 858-277-3075
Clearance Delivery:
123.725
Ground:
118.22
Tower:
119.2 125.7
DESTINATION
,
Elevation:
TPA:
1000 (est.)


6752.3 NM74° True-13° Var61° HDG

Flight Plan:
(click to file on line)

1. Type
2. Aircraft Identification
3. Aircraft Type / Special Equipment
4. True Airspeed
kts
5. Departure Airport
(ICAO code)
6. Arriving Airport
(ICAO code)
7. Cruising Altitude
ft
8. Alternate Airport
(ICAO code)
9. Route of Flight
10. Remarks


00:00:00 Departure ATIS: Destination ATIS:

Clearance Limit:
Route:
Altitude: Expect in minutes
Frequency:
Transponder: (7500 Hijack / 7600 Lost Comms / 7700 Emergency)


KMYF 282253Z 23005KT 10SM CLR 23/M04 A3016 RMK AO2 SLP209 T02331044
Time: 2022-01-28T22:53:00Z
1643412398
Winds: 230 @ 5 kts
Visibility: 10.0 sm
Clouds (AGL): CLR
Temperature: 23.3 C
Dew Point: -4.4 C
Pressure: 30.159449 in Hgbr


Notes:

Data extracted from FAA Digital Chart Supplement. Effective: 0901Z Thursday, DEC 2, 2021 to 0901Z Thursday, JAN 27, 2022
Current ATIS data is provided courtisy of PilotEdge.